Regional Weather Roundup
Issued by NWS Cleveland, OH

Home | Current Version | Previous Version | Text Only | Print | Product List | Glossary Off
Versions: 1 2 3 4 5 6 7 8 9 10 11 12 13 14 15 16 17 18 19 20 21 22 23 24 25 26 27 28 29 30 31 32 33 34 35 36 37 38 39 40 41 42 43 44 45 46 47 48 49 50

000
ASUS41 KCLE 282110
RWRCLE
OHIO REGIONAL WEATHER ROUNDUP
NATIONAL WEATHER SERVICE CLEVELAND, OH
500 PM EDT MON JUL 28 2014

NOTE: "FAIR" INDICATES FEW OR NO CLOUDS BELOW 12,000 FEET WITH NO
SIGNIFICANT WEATHER AND/OR OBSTRUCTIONS TO VISIBILITY.

OHZ001>008-015>018-024>027-034-035-043-044-282200-
   NORTHWEST OHIO

CITY           SKY/WX    TMP DP  RH WIND       PRES   REMARKS
DEFIANCE       PTSUNNY   74  52  46 NW16      29.95S
FINDLAY        PTSUNNY   73  52  47 NW10      29.94R
TOLEDO EXPRESS CLOUDY    72  51  47 N13       29.94R
TOLEDO EXEC    CLOUDY    72  51  47 N8        29.94R
LIMA           PTSUNNY   71  55  56 N10G23    29.95S
$$

OHZ009>014-019>023-028>033-038-089-282200-
   NORTHEAST OHIO

CITY           SKY/WX    TMP DP  RH WIND       PRES   REMARKS
CLE-HOPKINS    PTSUNNY   65  55  70 N20       29.94R
CLE-LAKEFRONT  MOSUNNY   66  55  67 N22       29.90R
CUY CO. ARPT   PTSUNNY   61  54  77 N14G23    29.92R
LORAIN-ELYRIA  PTSUNNY   70  53  54 N15G22    29.94R
ASHTABULA      CLOUDY    63  55  75 NW14G24   29.88R
AKRON-CANTON   CLOUDY    68  52  56 N13G24    29.91R
WOOSTER        MOSUNNY   70  53  54 N16       29.93R
MANSFIELD      PTSUNNY   69  50  50 NW13      29.94R
YOUNGSTOWN     DRIZZLE   61  56  83 NW10      29.88R
$$

OHZ042-051>053-060>062-070>072-077>081-282200-
  SOUTHWEST OHIO

CITY           SKY/WX    TMP DP  RH WIND       PRES   REMARKS
CINC-COVINGTON NOT AVBL
CINC-LUNKEN    PTSUNNY   75  58  55 NW10      29.96F
HAMILTON       MOSUNNY   75  59  57 NW13G20   29.97R
DAYTON         PTSUNNY   73  55  53 NW16      29.97S
WRIGHT-PAT AFB MOSUNNY   74  57  56 NW16      29.95R
DAYTON GENERAL MOSUNNY   73  53  49 NW16G22   29.95S
WILMINGTON     MOSUNNY   74  54  49 NW14      29.94S
$$

OHZ036-037-039>041-045>050-054>059-063>069-073>076-082>088-282200-
  CENTRAL AND SOUTHEAST OHIO

CITY           SKY/WX    TMP DP  RH WIND       PRES   REMARKS
COLUMBUS       PTSUNNY   75  54  47 N12       29.91S
OSU AIRPORT    CLOUDY    71  56  58 N12       29.93R
BOLTON FIELD   PTSUNNY   72  57  60 NW12      29.94R
RICKENBACK AFB   N/A     75  52  44 NW12      29.92R
NEWARK         PTSUNNY   72  56  57 N7        29.91S
MARION         CLOUDY    71  52  50 N13       29.94R
LANCASTER      PTSUNNY   73  57  57 NW7       29.92S
ZANESVILLE     PTSUNNY   70  55  59 N14       29.91
NEW PHILLY     MOSUNNY   68  55  63 N10G26    29.90R
$$



USA.gov is the U.S. government's official web portal to all federal, state and local government web resources and services.